Theta_e
306 306 304 304 305 307 308 308 308 308 309 309 308 309 308 308 308 307 307 305 305 314 316 314 310 309 312 313 312 313 320 319 317 314 314 313 313 313 314 315 314 316 317 333 354
305 306 306 307 307 307 308 308 308 308 308 308 308 308 308 308 308 307 308 305 312 315 316 313 313 311 309 313 312 317 318 319 318 316 315 314 314 315 315 316 315 318 319 327 349
303 306 307 307 307 308 308 308 308 308 308 308 308 308 308 308 307 307 309 312 311 314 314 311 314 314 308 312 313 312 317 317 316 317 316 316 314 315 315 316 317 318 319 331 350
303 306 307 307 308 308 307 307 307 308 308 308 308 308 307 308 310 309 316 317 315 308 308 313 314 314 312 309 310 313 312 312 314 314 314 315 317 319 318 317 318 318 318 322 351
304 306 306 307 308 307 307 307 307 307 308 308 308 308 308 308 309 306 315 313 309 308 308 312 314 312 311 310 311 311 309 312 313 313 314 314 315 315 316 319 320 320 321 321 328
304 306 307 308 308 308 307 307 308 309 310 309 308 308 308 311 308 307 308 308 309 308 309 310 313 312 312 310 310 309 310 311 311 311 313 314 314 315 316 316 318 319 320 321 321
305 306 308 308 308 307 307 308 309 310 310 310 309 308 308 311 309 309 309 310 310 309 310 309 310 311 310 312 311 311 312 312 313 312 312 313 314 315 314 316 316 319 320 320 320
306 307 306 308 306 307 308 309 310 310 311 311 310 308 311 309 309 310 310 310 310 309 309 309 308 310 309 309 309 310 309 311 313 313 311 313 311 314 314 314 315 315 316 317 319
306 308 306 306 306 308 308 310 311 310 311 311 309 309 312 309 310 311 311 312 310 309 309 310 309 310 308 310 310 309 309 311 312 314 312 313 311 312 315 315 315 315 316 316 318
305 305 305 306 307 308 308 311 312 312 311 310 309 310 310 311 310 310 311 311 312 311 311 311 310 311 309 310 311 310 310 309 310 312 313 314 313 313 315 316 317 317 317 318 318
304 305 307 306 307 308 308 308 310 311 312 311 311 310 310 309 309 309 310 311 312 311 313 311 312 313 313 311 311 311 311 312 310 310 313 313 315 315 315 316 317 317 318 318 319
303 304 308 308 307 308 308 310 310 309 312 309 310 310 309 309 310 310 310 312 311 314 311 312 314 313 312 312 311 312 312 313 312 309 310 310 312 314 315 316 317 318 318 319 319
302 304 309 309 308 308 307 308 308 308 312 312 311 311 311 309 310 310 311 312 313 315 314 315 314 312 312 312 312 312 313 313 312 311 310 310 310 311 312 315 316 318 319 319 320
302 304 309 309 308 307 308 308 308 308 315 312 311 310 310 310 311 310 313 314 314 314 314 315 314 314 314 314 313 315 313 311 312 312 313 310 310 309 311 312 316 318 319 319 319
301 306 310 310 309 308 307 309 308 308 311 309 311 310 310 310 310 311 314 314 314 313 313 315 315 316 317 316 315 317 313 312 313 313 312 310 313 311 313 316 316 318 320 319 319
301 310 309 309 308 308 307 308 308 311 309 310 310 311 311 311 310 312 311 313 313 314 314 315 313 314 316 315 314 315 315 313 312 311 312 310 311 310 313 316 318 317 320 319 318
302 308 307 307 307 308 309 308 313 311 309 311 311 311 311 311 311 312 313 314 315 316 316 315 315 314 315 316 314 316 316 317 317 316 314 310 310 311 315 316 318 318 320 319 318
303 308 305 305 307 307 305 311 309 310 310 310 311 311 312 311 312 312 313 315 313 314 319 318 317 316 316 316 317 318 315 315 314 314 312 311 313 312 312 316 318 319 320 318 318
304 309 305 305 308 307 310 315 311 310 311 311 311 313 312 312 312 313 314 315 314 316 318 321 318 314 316 316 315 317 317 312 316 311 310 312 312 313 312 314 318 319 319 319 318
304 307 306 305 308 307 311 313 312 310 310 311 313 313 314 313 314 314 315 314 314 315 314 314 319 314 316 316 315 316 312 315 316 315 315 310 310 312 315 314 318 321 319 320 320
304 309 305 305 306 309 312 310 309 309 310 311 312 313 313 315 314 315 316 314 314 315 314 310 311 316 317 317 316 317 317 315 313 314 318 313 310 311 319 317 320 321 320 320 327
302 306 304 304 308 305 308 307 307 310 309 310 311 313 313 314 315 316 316 314 313 314 312 311 314 320 316 315 314 314 316 314 317 312 317 326 319 317 320 322 322 321 318 325 334
303 304 303 304 308 308 306 306 307 309 309 310 312 312 312 315 315 315 315 313 313 314 310 312 317 321 317 316 315 319 315 315 315 317 317 320 331 334 335 331 319 321 327 339 339
303 305 305 304 303 306 306 307 308 307 308 309 310 311 314 313 312 315 314 314 312 313 314 312 315 321 319 316 316 317 316 315 315 317 317 317 317 324 336 327 330 336 339 338 334
302 304 302 305 305 305 304 305 308 308 307 307 311 313 312 313 313 314 312 313 311 312 312 312 318 318 318 319 319 318 316 318 318 317 322 319 322 323 335 337 340 337 336 334 331
305 305 303 304 304 305 304 307 307 307 306 310 311 311 311 313 313 313 313 312 314 312 313 311 319 318 321 320 319 317 317 318 319 319 320 321 322 324 336 338 337 335 332 331 328
300 300 303 304 304 305 306 306 306 306 307 307 309 309 312 313 312 312 310 310 310 312 312 313 319 321 325 321 321 323 321 322 322 319 320 323 325 336 337 335 333 331 329 327 323
Wind_Speed
20 20 20 21 22 22 21 20 19 19 17 16 16 17 18 20 21 16 6 3 4 4 6 6 1 1 4 6 4 3 8 14 17 14 7 3 10 5 3 14 6 6 12 4 14
21 21 21 22 22 23 22 20 19 18 16 14 14 15 16 17 18 9 3 7 5 3 5 6 4 1 4 4 6 10 12 18 6 12 9 7 14 7 5 7 12 9 12 7 18
23 23 23 23 23 23 22 21 19 17 14 13 12 13 13 13 4 2 8 8 4 3 4 5 2 1 5 4 7 8 16 11 6 1 6 13 13 9 11 18 13 14 9 7 15
24 24 25 25 25 24 22 21 18 16 13 12 11 10 10 6 3 1 8 3 7 4 4 2 2 4 4 8 10 11 10 14 14 13 9 10 6 9 13 20 9 11 8 9 10
26 26 26 26 26 24 22 19 17 14 14 12 8 5 4 2 5 6 9 9 7 3 2 3 4 4 5 4 6 13 18 11 9 10 11 14 17 16 19 14 15 18 16 13 12
29 27 28 28 27 25 21 19 19 17 14 8 3 2 0 2 3 5 6 8 6 5 6 5 3 4 3 4 6 2 6 9 12 19 14 14 21 16 14 15 21 19 21 15 14
30 30 29 28 26 23 19 20 18 13 9 3 5 5 2 2 2 6 10 6 5 6 3 7 6 5 0 5 5 8 12 9 13 13 14 13 23 32 17 20 17 14 14 12 14
31 31 30 27 24 16 18 19 12 10 5 6 8 4 5 3 10 12 7 6 7 9 6 3 8 5 5 5 8 10 9 8 1 11 16 15 29 27 10 17 25 22 23 20 17
32 31 28 24 17 14 16 15 10 6 9 12 5 3 2 6 6 10 8 6 4 4 5 3 5 4 4 5 6 5 9 8 6 5 7 20 27 7 6 17 16 15 19 17 15
34 32 26 21 13 12 13 6 4 5 5 2 3 3 4 5 8 14 9 8 6 2 3 6 5 7 5 8 8 7 8 8 11 4 13 19 26 16 19 14 13 12 16 15 16
37 34 23 16 12 10 10 2 4 1 3 5 7 5 9 7 10 15 6 3 3 3 7 6 9 14 19 17 17 14 16 16 12 10 11 19 16 17 14 20 18 16 16 14 13
37 32 20 16 11 8 7 2 1 6 9 6 8 7 9 4 17 10 2 3 4 8 2 6 17 20 20 18 19 20 21 19 17 15 14 22 22 20 17 24 17 17 19 16 10
39 29 18 16 9 5 6 1 6 5 4 6 3 3 4 10 13 12 4 4 8 12 11 15 19 9 12 17 19 21 21 16 20 11 17 18 23 26 24 24 19 19 20 17 14
40 30 14 14 3 9 3 4 4 4 3 5 2 0 5 18 4 18 3 4 5 12 13 15 14 18 19 22 18 23 18 18 17 9 10 10 13 18 15 26 22 21 19 19 14
42 24 12 11 7 3 4 16 4 4 4 13 3 3 19 6 17 3 3 3 15 18 11 11 10 7 13 20 18 22 16 15 16 16 14 17 10 18 17 17 23 24 21 20 15
41 14 12 9 7 6 14 1 1 2 3 7 5 19 20 17 4 6 10 2 6 9 13 25 19 14 20 17 13 4 9 8 10 10 10 25 17 15 17 24 20 24 21 21 15
35 10 12 9 7 15 7 1 2 4 7 7 12 19 21 10 11 12 16 13 8 5 5 8 14 14 10 11 6 11 9 5 7 7 14 13 16 20 19 22 23 25 21 19 14
25 4 17 19 13 11 1 1 4 2 8 13 15 22 5 11 11 11 13 13 6 10 4 4 6 10 11 12 8 13 17 6 8 9 12 13 15 18 30 23 12 15 16 14 15
16 3 9 28 12 9 2 5 2 6 10 12 18 5 8 13 6 11 8 9 4 9 3 4 7 6 12 12 8 3 11 10 4 11 9 15 17 16 25 21 21 16 16 17 17
11 5 8 26 8 4 4 1 3 3 9 7 5 2 17 20 13 12 5 5 4 5 8 2 8 8 3 7 10 4 6 6 5 5 10 14 22 13 22 25 19 18 20 17 16
6 2 15 22 4 5 3 3 5 7 10 3 7 9 13 10 10 5 7 11 8 7 7 5 6 2 5 8 9 5 4 4 5 8 6 10 15 19 14 24 22 21 22 20 19
5 2 19 19 4 2 2 6 5 6 2 5 5 8 9 14 6 7 7 7 12 10 4 7 4 5 7 5 3 11 7 15 9 9 8 7 4 13 16 15 21 19 19 21 21
3 3 11 10 4 4 6 4 4 5 8 4 6 5 9 6 8 7 10 8 14 8 5 4 3 2 4 5 1 5 14 15 12 4 11 6 2 4 6 10 12 19 24 23 23
3 5 3 4 2 2 5 4 7 7 8 5 10 10 10 16 11 11 18 9 19 18 13 7 4 4 6 4 1 5 10 14 14 6 6 11 20 22 9 15 19 22 25 23 20
4 2 1 5 2 6 3 3 6 7 5 6 5 15 19 9 18 5 21 14 12 6 5 3 4 3 12 14 13 11 8 9 12 14 6 9 14 17 11 21 23 24 25 23 20
3 3 2 4 6 7 1 2 5 7 4 7 7 21 21 10 12 24 24 16 4 5 5 3 4 6 4 5 7 8 10 11 13 10 12 11 17 17 17 20 19 23 24 22 21
2 0 2 3 3 3 2 2 7 11 8 16 18 17 17 19 24 27 17 10 7 6 6 4 5 4 4 1 5 6 3 9 9 8 11 6 7 18 16 18 18 19 20 23 22
Wind_Direction
354 352 349 345 340 337 335 334 331 327 325 325 325 323 322 322 320 317 268 220 90 67 26 342 310 234 159 191 197 161 231 239 234 221 222 181 213 189 219 231 205 206 240 81 147
352 349 344 340 337 333 331 329 325 324 323 319 320 318 319 324 319 287 318 136 118 16 341 17 58 106 213 207 199 207 226 235 228 240 243 244 239 212 250 220 231 256 258 303 174
352 346 341 338 334 331 329 327 324 322 320 317 317 316 320 325 288 68 104 100 40 322 296 320 198 238 221 209 206 220 239 232 185 313 291 273 255 242 251 250 233 238 249 357 181
349 343 340 335 332 330 330 328 324 319 316 312 312 321 322 326 8 112 165 302 317 294 284 161 159 181 207 218 225 251 247 249 263 287 303 288 308 285 248 248 260 248 306 316 204
347 342 337 333 332 331 331 328 323 315 309 307 310 322 334 296 256 166 201 262 292 239 207 217 211 193 236 237 235 241 250 247 259 285 288 292 272 271 260 253 264 277 278 276 259
347 341 336 334 332 332 331 328 321 313 303 299 290 210 248 16 246 223 260 280 236 194 170 173 222 236 264 250 246 319 297 275 266 258 261 277 280 277 248 246 253 255 266 267 250
347 342 338 335 333 334 340 334 328 334 308 252 165 171 231 217 268 278 278 268 232 207 214 195 190 222 111 278 267 284 283 277 249 241 242 251 273 249 258 258 263 247 246 244 251
347 341 341 338 337 353 349 338 0 4 61 137 151 163 252 295 317 307 286 278 254 229 225 222 188 205 221 260 263 276 280 276 330 228 223 202 254 255 243 233 248 251 256 256 258
349 343 346 344 354 3 355 351 17 50 85 127 143 196 270 319 313 310 275 264 212 219 219 164 173 232 189 248 277 245 261 250 276 264 230 210 245 276 268 248 261 256 258 255 252
355 353 350 351 4 360 354 5 26 75 110 106 127 241 252 326 331 310 284 247 251 234 224 195 207 222 218 222 252 250 254 255 260 236 228 234 248 254 278 286 288 293 268 255 243
357 358 353 356 353 358 1 326 320 234 199 260 292 260 289 300 322 315 274 168 197 204 238 203 225 237 244 236 249 261 262 262 261 272 285 260 273 272 275 274 268 267 267 263 245
360 355 347 351 328 342 357 19 80 306 300 276 255 254 269 276 313 317 165 225 210 258 230 243 246 254 256 253 248 252 257 259 263 250 257 264 270 269 261 264 264 267 261 259 238
357 350 339 346 334 333 338 349 308 333 285 300 247 262 315 316 306 306 183 279 240 265 257 262 265 281 243 248 245 244 249 253 253 262 259 266 270 265 254 258 257 253 254 256 229
356 350 338 348 8 338 329 339 300 333 303 342 15 221 344 332 265 329 267 277 265 280 285 275 287 249 252 251 244 257 241 239 242 243 254 206 265 258 249 245 240 243 241 241 221
355 348 354 352 321 325 312 319 312 167 313 329 307 307 328 331 293 270 193 235 278 279 263 251 262 234 234 248 252 255 247 234 237 239 263 249 256 263 242 240 227 229 232 236 223
354 1 5 3 353 335 316 348 151 260 339 336 315 326 331 331 264 272 299 227 293 275 252 260 258 268 254 258 256 250 215 236 222 233 242 241 224 251 233 220 225 222 221 229 207
354 35 32 15 329 330 340 163 331 31 334 316 319 325 321 314 314 316 310 295 274 299 272 301 256 239 241 232 227 186 155 179 197 199 239 234 233 235 208 226 224 217 212 214 200
354 83 24 5 341 348 4 4 17 350 310 306 317 316 303 333 324 312 302 301 252 234 276 287 301 189 185 210 203 199 193 190 212 214 247 219 226 231 232 243 247 245 212 196 186
359 17 16 357 345 347 35 51 322 332 325 316 320 314 312 322 316 313 295 293 266 198 242 280 249 239 215 214 192 184 208 207 316 247 256 223 232 250 230 228 236 240 193 183 182
351 349 13 350 350 32 60 304 269 245 323 311 307 328 316 319 320 330 308 270 277 221 208 289 280 252 304 194 186 203 195 170 217 241 233 231 228 232 204 214 221 212 196 180 173
6 0 354 358 26 49 55 293 288 289 322 295 290 288 300 308 289 288 265 283 278 278 249 206 220 307 173 204 198 187 182 191 250 238 267 275 225 210 219 200 204 201 183 169 164
350 346 354 4 38 35 13 313 294 293 290 287 275 276 279 309 272 275 251 264 290 320 254 206 270 253 238 143 131 202 200 205 220 226 234 282 204 191 208 195 195 195 165 158 146
358 299 1 16 44 356 328 298 271 308 319 308 283 283 283 294 307 257 289 277 318 313 256 186 239 279 201 215 166 204 216 220 236 271 283 341 82 341 200 162 166 160 149 142 131
352 346 8 45 66 29 339 294 314 314 294 298 281 289 302 306 291 285 287 307 311 303 297 200 242 268 274 312 148 226 208 219 226 267 311 264 288 283 169 151 145 148 137 129 127
12 59 45 325 28 338 287 272 302 330 300 306 272 312 325 301 307 269 309 315 305 297 317 268 269 261 279 262 255 244 203 194 214 228 251 307 287 297 165 144 139 138 126 125 124
10 351 354 284 289 310 239 268 306 319 278 291 285 318 313 291 303 308 310 315 282 317 313 293 297 307 297 14 206 201 185 199 251 261 239 253 275 267 144 117 128 129 128 126 122
31 38 287 277 296 296 255 297 293 321 270 249 289 307 309 321 316 297 290 266 252 308 330 299 311 326 15 324 130 130 39 323 315 306 294 241 239 125 113 118 118 122 125 124 120